226  
ASUS45 KREV 161010  
RWRNV  
NEVADA REGIONAL WEATHER ROUNDUP  
NATIONAL WEATHER SERVICE RENO NV  
300 AM PDT SAT OCT 16 2021  
 
NOTE: "FAIR" INDICATES FEW OR NO CLOUDS BELOW 12,000 FEET WITH NO  
SIGNIFICANT WEATHER AND/OR S TO VISIBILITY
.  
 
NVZ001-003-004-161100-  
WESTERN NEVADA  
 
CITY SKY/WX TMP DP RH WIND PRES REMARKS
 
RENO CLEAR 39 26 59 CALM 30.29F  
CARSON CITY FAIR 34 18 51 CALM 30.31F  
MINDEN FAIR 25 12 58 CALM 30.30F  
SLIDE MTN N/A 43 21 42 SE6 N/A  
PYRAMID LAKE N/A 54 N/A N/A S6 N/A  
FALLON CLEAR 36 31 82 CALM 30.28S  
LOVELOCK CLEAR 29 18 63 CALM 30.29S  
HAWTHORNE CLEAR 43 23 45 CALM 30.29S  

 
 
NVZ002-CAZ072-073-161100-  
NORTHERN AND CENTRAL SIERRA  
 
CITY SKY/WX TMP DP RH WIND PRES REMARKS
 
S. LAKE TAHOE CLEAR 28 21 75 S3 30.32F  
TRUCKEE CLEAR 27 23 86 CALM 30.34S  
BLUE CANYON CLEAR 56 21 25 CALM 30.26F  
SUSANVILLE FAIR 36 19 51 NW5 30.28S  
MAMMOTH LAKES FAIR 30 16 55 NW3 30.39S  
BRIDGEPORT N/A 1 -6 71 SW3 N/A  

 
 
NVZ030-031-036-161100-  
NORTHERN NEVADA  
 
CITY SKY/WX TMP DP RH WIND PRES REMARKS
 
ELKO CLEAR 31 18 58 E3 30.36S  
WINNEMUCCA CLEAR 28 19 69 SE5 30.30S  
BATTLE MOUNTAI SUNNY 32 25 74 S6 30.33F  
WENDOVER CLEAR 35 23 61 W5 30.40F  

 
 
NVZ035-037-161100-  
CENTRAL NEVADA  
 
CITY SKY/WX TMP DP RH WIND PRES REMARKS
 
ELY CLEAR 26 17 68 S10 30.40F  
EUREKA N/A 28 15 58 SW6 30.36F  

 
 
NVZ013-014-161100-  
SOUTH CENTRAL NEVADA  
 
CITY SKY/WX TMP DP RH WIND PRES REMARKS
 
TONOPAH CLEAR 39 -1 18 N14 30.34F  

 
 
NVZ017-020-022-161100-  
SOUTHERN NEVADA  
 
CITY SKY/WX TMP DP RH WIND PRES REMARKS
 
LAS VEGAS CLEAR 59 19 21 VRB3 30.21F  
N. LAS VEGAS CLEAR 55 21 26 CALM 30.19F  
NELLIS AFB CLEAR 58 19 22 NE6 30.20F  
HENDERSON CLEAR 53 22 29 N3 30.23F  
MERCURY NOT AVBL  

 
 
 
CLICK HERE TO GO TO PREVIOUS BULLETINS.

The Nexlab NV Page Main Text Page